Погода в Каменке

Россия / Ненецкий автономный округ     67°29′16″N   51°52′52″E
В апреле 2022 года жителям России запретили посещать сайт meteo.paraplan.net по решению Генеральной прокуратуры. Аудитория сайта уменьшилась в 10 раз. Владельцы сайта не видят смысла в поддержке погодного сервера в таких условиях. Сайт будет закрыт в октябре.
темп.,
°C
ветер,
м/с
пор.,
м/с
влажн.,
%
обл.,
%
осадки,
мм/ч
давл.,
гПа
погр.,
м
6 октября, чт
чт600:00+6ююв2397100 0.0 101472
03:00+6ю3498100 0.0 101389
06:00+6ю3598100 0.1 1012162
09:00+6ю4696100 0.1 1011241
12:00+6ю4794100 0.0 1010332
15:00+6ю4794100 0.1 1008268
18:00+6ю5994100 0.0 1006271
21:00+5ю6109368 0.0 1004307
7 октября, пт
пт700:00+4ююв7129519 0.0 1001280
03:00+4ююв71396100 0.0 998365
06:00+5ююв81396100 0.0 995458
09:00+6ююв81493100 0.3 993515
12:00+6ююв71293100 0.3 992566
15:00+6ююв61096100 0.9 991399
18:00+6ю5898100 2.0 990307
21:00+6ююз3599100 3.8 990141
8 октября, сб
сб800:00+5юз2398100 1.4 99191
03:00+6зсз4896100 2.9 991321
06:00+5зсз71093100 1.3 993922
09:00+6зсз81393100 4.4 9951191
12:00+7зсз91385100 1.1 998744
15:00+7з61181100 1.1 1000501
18:00+6з71082100 0.0 1000471
21:00+5юз498864 0.0 1000204
9 октября, вс
вс900:00+5ю5989100 0.0 999243
03:00+5ю61097100 0.9 997332
06:00+7ююз71395100 1.3 995453
09:00+7ююз71495100 4.0 994588
12:00+9юз81285100 1.4 995871
15:00+8юз7128097 2.1 995490
18:00+6юз611895 0.2 995236
21:00+5юз8158533 0.2 995536
10 октября, пн
пн1000:00+6зюз91489100 0.6 994802
03:00+6юз101684100 0.7 994806
06:00+5зюз121782100 0.1 994882
09:00+4зюз111694100 0.6 9951036
12:00+6зюз91279100 0.1 996955
15:00+6з8138380 0.4 998706
18:00+5з71386100 0.1 1000498
21:00+4з8148999 0.1 1002501